map of AHO home
Great Circle Mapper logo
AHO - Airport
Location
City:  Alghero, Sardinia, Italy
Name:Fertilia
ICAO / IATA:LIEA / AHO

Details
Type:Airport (Aerodrome, Airfield)
Use:Public/Civil, International (customs port of entry)
Latitude:4037'56"N (40.632133)
Longitude:817'27"E (8.290772)
Datum:WGS 1984
Elevation:87 ft (27 m)
Variation:1.8E (WMM2010 magnetic declination)
Runways:1
Longest:9843 × 148 ft (3000 × 45 m), paved

Time
Time Zone:UTC+1 (DST+2)
Local Time:

Weather
METAR:LIEA 271220Z 15003KT 110V200 CAVOK 21/10 Q1010
TAF:LIEA 271100Z 2712/2812 18012KT 9999 SCT025
BECMG 2712/2715 05012KT
BECMG 2818/2820 18012KT

Related Locations
Nearby:
Farthest:CHT: 12108 mi / 19486 km
Waitangi [Tuuta], Chatham Islands, NZ

Find:

   beyond  
but within

Other Information
Maps:
NOTAMs:
Links:
Sources:

  
flag of Italy
flag of Sardinia
  

Sectional Chart

Flight Planning
at skyvector.com

Satellite Image

Google Maps Satellite View

 

Copyright © 2004-2014 Karl L. Swartz. All rights reserved.
The Great Circle Mapper name and logo are trademarks of the Great Circle Mapper.
All other trademarks mentioned herein belong to their respective owners.
Please see credits for attibutions and further copyright information.

  Follow gcmap on Facebook Follow gcmap on Twitter

hCard Microformat

Geo Microformat